Weather History for CYQZ - October, 2011

Change the Weather History Date:

Friday, October 21, 2011

  Actual Average Record
Temperature  
Mean Temperature 42 °F -  
Max Temperature 57 °F 46 °F 66 °F (1999)
Min Temperature 26 °F 30 °F 19 °F (2004)
Degree Days  
Heating Degree Days 24    
Moisture  
Dew Point 34 °F    
Average Humidity 83    
Maximum Humidity 100    
Minimum Humidity 48    
Precipitation  
Precipitation 0.00 in - - ()
Sea Level Pressure  
Sea Level Pressure 29.92 in    
Wind  
Wind Speed 2 mph ()    
Max Wind Speed 13 mph    
Max Gust Speed 20 mph    
Visibility 9.0 miles    
Events Rain , Snow    
Averages and records for this station are not official NWS values.
T = Trace of Precipitation, MM = Missing Value Source: Averaged Metar Reports

Daily Weather History Graph

Daily Weather History Graph

Search for Another Location

Airport or City:

Trip Planner

Search our weather history database for the weather conditions in past years. The results will help you decide how hot, cold, wet, or windy it might be!

Date:

Astronomy

Oct. 21, 2011 Rise Set
Actual Time 7:47 AM PDT 6:01 PM PDT
Civil Twilight 7:11 AM PDT 6:36 PM PDT
Nautical Twilight 6:31 AM PDT 7:16 PM PDT
Astronomical Twilight 5:51 AM PDT 7:56 PM PDT
Moon 12:55 AM PDT (10/21) 3:30 PM PDT (10/21)
Length of Visible Light 11h 24m
Length of Day
10h 14m
Waning Crescent, 32% of the Moon is Illuminated
Oct 21
Waning Crescent
Oct 26
New
Nov 2
First Quarter
Nov 10
Full
Nov 18
Last Quarter

Hourly Weather History & Observations

Time (PDT) Temp. Windchill Dew Point Humidity Pressure Visibility Wind Dir Wind Speed Gust Speed Precip Events Conditions
12:00 AM 26.6 °F - 26.6 °F 100% 30.14 in 9.0 mi Calm Calm - N/A   Clear
1:00 AM 26.6 °F - 26.6 °F 100% 30.13 in 9.0 mi Calm Calm - N/A   Scattered Clouds
2:00 AM 26.6 °F - 26.6 °F 100% 30.10 in 9.0 mi Calm Calm - N/A   Clear
3:00 AM 26.6 °F - 26.6 °F 100% 30.09 in 9.0 mi Calm Calm - N/A   Clear
4:00 AM 28.4 °F - 28.4 °F 100% 30.07 in 9.0 mi Calm Calm - N/A   Scattered Clouds
5:00 AM 28.4 °F - 28.4 °F 100% 30.06 in 9.0 mi Calm Calm - N/A   Mostly Cloudy
6:00 AM 28.4 °F - 28.4 °F 100% 30.04 in 9.0 mi Calm Calm - N/A   Mostly Cloudy
7:00 AM 30.2 °F - 30.2 °F 100% 30.01 in 9.0 mi Calm Calm - N/A   Overcast
8:00 AM 30.2 °F - 30.2 °F 100% 29.98 in 9.0 mi Calm Calm - N/A   Overcast
8:40 AM 32.0 °F 28.7 °F 30.2 °F 93% 29.96 in 9.0 mi South 3.5 mph - N/A Snow Light Snow
8:47 AM 32.0 °F - 30.2 °F 93% 29.95 in 9.0 mi Variable 2.3 mph - N/A   Overcast
8:52 AM 33.8 °F - 32.0 °F 93% 29.95 in 9.0 mi Variable 2.3 mph - N/A   Overcast
9:02 AM 32.0 °F 28.7 °F 30.2 °F 93% 29.96 in 9.0 mi ESE 3.5 mph - N/A   Overcast
10:00 AM 33.8 °F - 32.0 °F 93% 29.91 in 9.0 mi Variable 2.3 mph - N/A   Overcast
11:00 AM 37.4 °F - 33.8 °F 87% 29.89 in 9.0 mi Calm Calm - N/A   Overcast
11:52 AM 37.4 °F - 35.6 °F 93% 29.86 in 9.0 mi Variable 2.3 mph - N/A Rain Light Rain
12:00 PM 37.4 °F 34.9 °F 33.8 °F 87% 29.86 in 8.0 mi SW 3.5 mph - N/A Rain Light Rain
12:08 PM 37.4 °F 34.9 °F 33.8 °F 87% 29.86 in 9.0 mi WSW 3.5 mph - N/A   Mostly Cloudy
1:00 PM 46.4 °F 42.4 °F 35.6 °F 66% 29.83 in 9.0 mi SE 8.1 mph - N/A   Scattered Clouds
2:00 PM 51.8 °F - 35.6 °F 54% 29.78 in 9.0 mi SE 9.2 mph - N/A   Scattered Clouds
3:00 PM 57.2 °F - 37.4 °F 48% 29.76 in 9.0 mi SSE 12.7 mph 19.6 mph N/A   Mostly Cloudy
4:00 PM 55.4 °F - 39.2 °F 54% 29.76 in 9.0 mi SE 9.2 mph - N/A   Overcast
4:20 PM 55.4 °F - 39.2 °F 54% 29.77 in 9.0 mi ESE 6.9 mph - N/A Rain Light Rain
4:33 PM 53.6 °F - 39.2 °F 58% 29.77 in 9.0 mi ESE 8.1 mph - N/A   Mostly Cloudy
5:00 PM 53.6 °F - 41.0 °F 62% 29.79 in 9.0 mi ESE 5.8 mph - N/A   Mostly Cloudy
5:10 PM 53.6 °F - 41.0 °F 62% 29.78 in 9.0 mi SE 9.2 mph - N/A Rain Light Rain
5:20 PM 55.4 °F - 41.0 °F 58% 29.78 in 9.0 mi ESE 8.1 mph - N/A   Mostly Cloudy
6:00 PM 50.0 °F - 39.2 °F 66% 29.81 in 9.0 mi ESE 5.8 mph - N/A   Partly Cloudy
7:00 PM 46.4 °F - 41.0 °F 81% 29.84 in 9.0 mi Variable 2.3 mph - N/A   Clear
8:00 PM 41.0 °F 38.0 °F 37.4 °F 87% 29.90 in 9.0 mi Variable 4.6 mph - N/A   Mostly Cloudy
9:00 PM 35.6 °F - 33.8 °F 93% 29.94 in 9.0 mi Calm Calm - N/A   Partly Cloudy
11:00 PM 32.0 °F - 30.2 °F 93% 30.01 in 9.0 mi Variable 2.3 mph - N/A   Clear